• In Kazakhstan
  • List of Countries
  • For 7 days
  • Water Temperature
  • Satellite Maps
  • Weather Map
  • News
  • Weather Widgets
  • user-avatar
    Login

    Hourly Weather Waterbury

    Today, 21 September, Thursday

    Time Temperature Precipitation Wind Pressure Humidity
    00:00 +21°C° 0 mm 3 mps 747 mmHg 85%
    01:00 +21°C° 0 mm 3 mps 748 mmHg 85%
    02:00 +21°C° 0 mm 3 mps 748 mmHg 85%
    03:00 +21°C° 0 mm 3 mps 748 mmHg 84%
    04:00 +21°C° 0 mm 4 mps 748 mmHg 84%
    05:00 +21°C° 0 mm 4 mps 748 mmHg 82%
    06:00 +21°C° 0 mm 4 mps 748 mmHg 81%
    07:00 +21°C° 0 mm 4 mps 749 mmHg 80%
    08:00 +22°C° 0 mm 5 mps 749 mmHg 73%
    09:00 +25°C° 0 mm 5 mps 749 mmHg 66%
    10:00 +26°C° 0 mm 5 mps 750 mmHg 60%
    11:00 +27°C° 0 mm 5 mps 750 mmHg 55%
    12:00 +27°C° 0 mm 5 mps 750 mmHg 51%
    13:00 +28°C° 0 mm 5 mps 750 mmHg 47%
    14:00 +27°C° 0 mm 4 mps 749 mmHg 47%
    15:00 +27°C° 0 mm 4 mps 749 mmHg 48%
    16:00 +26°C° 0 mm 4 mps 749 mmHg 48%
    17:00 +25°C° 0 mm 3 mps 749 mmHg 50%
    18:00 +22°C° 0 mm 3 mps 750 mmHg 52%
    19:00 +21°C° 0 mm 3 mps 750 mmHg 53%
    20:00 +20°C° 0 mm 4 mps 750 mmHg 53%
    21:00 +20°C° 0 mm 4 mps 750 mmHg 53%
    22:00 +19°C° 0 mm 4 mps 750 mmHg 52%
    23:00 +19°C° 0 mm 4 mps 750 mmHg 53%

    Tomorrow, 22 September, Friday

    Time Temperature Precipitation Wind Pressure Humidity
    00:00 +19°C° 0 mm 5 mps 750 mmHg 54%
    01:00 +17°C° 0 mm 5 mps 750 mmHg 54%
    02:00 +17°C° 0 mm 5 mps 750 mmHg 56%
    03:00 +17°C° 0 mm 5 mps 750 mmHg 57%
    04:00 +16°C° 0 mm 5 mps 750 mmHg 58%
    05:00 +16°C° 0 mm 5 mps 750 mmHg 58%
    06:00 +16°C° 0 mm 6 mps 750 mmHg 59%
    07:00 +16°C° 0 mm 6 mps 750 mmHg 59%
    08:00 +19°C° 0 mm 6 mps 750 mmHg 55%
    09:00 +21°C° 0 mm 6 mps 750 mmHg 51%
    10:00 +23°C° 0 mm 6 mps 750 mmHg 48%
    11:00 +24°C° 0 mm 6 mps 750 mmHg 48%
    12:00 +24°C° 0 mm 6 mps 749 mmHg 47%
    13:00 +26°C° 0 mm 6 mps 749 mmHg 47%
    14:00 +24°C° 0 mm 6 mps 749 mmHg 51%
    15:00 +23°C° 0 mm 6 mps 749 mmHg 55%
    16:00 +22°C° 0 mm 6 mps 748 mmHg 60%
    17:00 +21°C° 0 mm 6 mps 749 mmHg 62%
    18:00 +21°C° 0 mm 6 mps 749 mmHg 65%
    19:00 +20°C° 0 mm 6 mps 749 mmHg 67%
    20:00 +20°C° 0 mm 6 mps 749 mmHg 69%
    21:00 +20°C° 0 mm 5 mps 749 mmHg 72%
    22:00 +19°C° 0 mm 5 mps 749 mmHg 74%
    23:00 +19°C° 0 mm 5 mps 749 mmHg 75%

    Day after tomorrow, 23 September, Saturday

    Time Temperature Precipitation Wind Pressure Humidity
    00:00 +19°C° 0 mm 5 mps 749 mmHg 76%
    01:00 +19°C° 0 mm 5 mps 749 mmHg 77%
    02:00 +19°C° 0 mm 5 mps 749 mmHg 78%
    03:00 +19°C° 0 mm 5 mps 749 mmHg 79%
    04:00 +19°C° 0 mm 5 mps 749 mmHg 79%
    05:00 +19°C° 0 mm 5 mps 749 mmHg 79%
    06:00 +19°C° 0 mm 5 mps 749 mmHg 79%
    07:00 +19°C° 0 mm 5 mps 750 mmHg 78%
    08:00 +21°C° 0 mm 5 mps 750 mmHg 74%
    09:00 +23°C° 0 mm 5 mps 750 mmHg 69%
    10:00 +25°C° 0 mm 5 mps 750 mmHg 64%
    11:00 +26°C° 0 mm 5 mps 750 mmHg 61%
    12:00 +28°C° 0 mm 5 mps 749 mmHg 57%
    13:00 +29°C° 0 mm 4 mps 749 mmHg 53%
    14:00 +29°C° 0 mm 4 mps 749 mmHg 55%
    15:00 +29°C° 0 mm 4 mps 749 mmHg 56%
    16:00 +28°C° 0 mm 4 mps 749 mmHg 57%
    17:00 +26°C° 0 mm 3 mps 749 mmHg 65%
    18:00 +24°C° 0 mm 2 mps 749 mmHg 73%
    19:00 +21°C° 0 mm 2 mps 749 mmHg 81%
    20:00 +21°C° 0 mm 2 mps 749 mmHg 85%
    21:00 +20°C° 0 mm 2 mps 749 mmHg 90%
    22:00 +19°C° 0 mm 2 mps 750 mmHg 94%
    23:00 +19°C° 0 mm 2 mps 749 mmHg 94%

    24 September, Sunday

    Time Temperature Precipitation Wind Pressure Humidity
    00:00 +18°C° 0 mm 2 mps 749 mmHg 95%
    01:00 +18°C° 0 mm 2 mps 749 mmHg 96%
    02:00 +18°C° 0 mm 2 mps 749 mmHg 96%
    03:00 +18°C° 0 mm 2 mps 749 mmHg 96%
    04:00 +17°C° 0 mm 2 mps 750 mmHg 96%
    05:00 +18°C° 0 mm 2 mps 750 mmHg 93%
    06:00 +18°C° 0 mm 2 mps 750 mmHg 90%
    07:00 +19°C° 0 mm 2 mps 750 mmHg 86%
    08:00 +21°C° 0 mm 2 mps 750 mmHg 76%
    09:00 +25°C° 0 mm 3 mps 750 mmHg 66%
    10:00 +27°C° 0 mm 3 mps 750 mmHg 56%
    11:00 +29°C° 0 mm 3 mps 750 mmHg 53%
    12:00 +30°C° 0 mm 3 mps 750 mmHg 49%
    13:00 +31°C° 0 mm 3 mps 749 mmHg 46%
    14:00 +31°C° 0 mm 3 mps 749 mmHg 49%
    15:00 +30°C° 0 mm 2 mps 749 mmHg 52%
    16:00 +30°C° 0 mm 2 mps 749 mmHg 55%
    17:00 +28°C° 0 mm 2 mps 749 mmHg 65%
    18:00 +25°C° 0 mm 2 mps 750 mmHg 76%
    19:00 +23°C° 0 mm 2 mps 750 mmHg 86%
    20:00 +22°C° 0 mm 1 mps 750 mmHg 90%
    21:00 +22°C° 0 mm 1 mps 750 mmHg 93%
    22:00 +21°C° 0 mm 1 mps 750 mmHg 96%
    23:00 +21°C° 0 mm 1 mps 750 mmHg 97%

    25 September, Monday

    Time Temperature Precipitation Wind Pressure Humidity
    00:00 +21°C° 0 mm 1 mps 750 mmHg 97%
    01:00 +21°C° 0 mm 1 mps 750 mmHg 98%
    02:00 +21°C° 0 mm 1 mps 750 mmHg 98%
    03:00 +21°C° 0 mm 1 mps 750 mmHg 98%
    04:00 +21°C° 0 mm 1 mps 751 mmHg 98%
    05:00 +21°C° 0 mm 1 mps 751 mmHg 97%
    06:00 +22°C° 0 mm 1 mps 751 mmHg 96%
    07:00 +22°C° 0 mm 1 mps 751 mmHg 95%
    08:00 +23°C° 0 mm 1 mps 751 mmHg 91%
    09:00 +25°C° 0 mm 1 mps 751 mmHg 86%
    10:00 +26°C° 0 mm 2 mps 752 mmHg 81%
    11:00 +27°C° 0.1 mm 2 mps 751 mmHg 75%
    12:00 +28°C° 0.1 mm 2 mps 751 mmHg 68%
    13:00 +29°C° 0.1 mm 3 mps 751 mmHg 62%
    14:00 +29°C° 0.3 mm 3 mps 751 mmHg 67%
    15:00 +28°C° 0.3 mm 3 mps 751 mmHg 71%
    16:00 +28°C° 0.3 mm 3 mps 750 mmHg 76%
    17:00 +26°C° 0.2 mm 2 mps 751 mmHg 83%
    18:00 +25°C° 0.2 mm 2 mps 751 mmHg 89%
    19:00 +23°C° 0.2 mm 2 mps 751 mmHg 96%
    20:00 +23°C° 0.1 mm 1 mps 751 mmHg 96%
    21:00 +23°C° 0.1 mm 1 mps 751 mmHg 97%
    22:00 +23°C° 0.1 mm 1 mps 751 mmHg 98%
    23:00 +23°C° 0 mm 1 mps 751 mmHg 98%

    26 September, Tuesday

    Time Temperature Precipitation Wind Pressure Humidity
    00:00 +23°C° 0 mm 1 mps 751 mmHg 98%
    01:00 +21°C° 0 mm 0 mps 750 mmHg 98%
    02:00 +21°C° 0 mm 0 mps 750 mmHg 98%
    03:00 +21°C° 0 mm 0 mps 750 mmHg 98%
    04:00 +21°C° 0 mm 0 mps 750 mmHg 98%
    05:00 +23°C° 0 mm 1 mps 750 mmHg 98%
    06:00 +23°C° 0 mm 1 mps 750 mmHg 97%
    07:00 +23°C° 0 mm 1 mps 750 mmHg 97%
    08:00 +24°C° 0 mm 1 mps 750 mmHg 93%
    09:00 +25°C° 0 mm 1 mps 750 mmHg 90%
    10:00 +26°C° 0 mm 1 mps 750 mmHg 86%
    11:00 +27°C° 0.1 mm 2 mps 750 mmHg 81%
    12:00 +27°C° 0.1 mm 2 mps 750 mmHg 75%
    13:00 +28°C° 0.1 mm 2 mps 749 mmHg 69%
    14:00 +28°C° 0 mm 2 mps 749 mmHg 70%
    15:00 +28°C° 0 mm 2 mps 749 mmHg 70%
    16:00 +28°C° 0 mm 2 mps 748 mmHg 70%
    17:00 +26°C° 0 mm 2 mps 748 mmHg 79%
    18:00 +24°C° 0 mm 2 mps 748 mmHg 87%
    19:00 +21°C° 0 mm 2 mps 748 mmHg 95%
    20:00 +22°C° 0 mm 1 mps 748 mmHg 96%
    21:00 +21°C° 0 mm 1 mps 748 mmHg 97%
    22:00 +21°C° 0 mm 1 mps 748 mmHg 98%
    23:00 +21°C° 0 mm 1 mps 748 mmHg 98%
    Show more